Regional Weather Roundup
Issued by NWS

Home | Current Version | Previous Version | Graphics & Text | Print | Product List | Glossary On
Versions: 1 2 3 4 5 6 7 8 9 10 11 12 13 14 15 16 17 18 19 20 21 22 23 24 25 26 27 28 29 30 31 32 33 34 35 36 37 38 39 40 41 42 43 44 45 46 47 48 49 50
000
ASUS43 KLOT 011010
RWRIL

ILLINOIS REGIONAL WEATHER ROUNDUP
NATIONAL WEATHER SERVICE CHICAGO/ROMEOVILLE IL
400 AM CST SUN FEB 01 2015

NOTE: "FAIR" INDICATES FEW OR NO CLOUDS BELOW 12,000 FEET WITH NO
SIGNIFICANT WEATHER AND/OR OBSTRUCTIONS TO VISIBILITY.

* THESE STATIONS ARE NOT UNDER NWS QUALITY CONTROL. THEY ALSO MAY NOT
  REPORT WEATHER SUCH AS PRECIPITATION OR FOG.

ILZ001-002-007-009-015-016-024-011100-
NORTHWEST ILLINOIS

CITY           SKY/WX    TMP DP  RH WIND       PRES   REMARKS
MOLINE         LGT SNOW  32  31  96 E9        29.91F VSB 3/4 WCI  24
STERLING*        N/A    N/A N/A N/A MISG        N/A
SAVANNA*       LGT SNOW  31  30  95 E15       29.97F VSB 3/4 WCI  21
$$

ILZ003-004-008-010-011-017-018-011100-
NORTH CENTRAL ILLINOIS

CITY           SKY/WX    TMP DP  RH WIND       PRES   REMARKS
ROCKFORD       LGT SNOW  30  27  88 E14       30.03F VSB 1   WCI  19
FREEPORT*      LGT SNOW  29  28  96 E15       30.02F VSB 3/4 WCI  17
ROCHELLE*      LGT SNOW  30  30  98 E12       30.00F VSB 1   WCI  21
DE KALB*       LGT SNOW  29  28  96 E13       30.01F VSB 1   WCI  19
PERU*          LGT SNOW  33  33 100 E5        29.98F VSB 1   WCI  29
$$

ILZ005-006-012>014-019>023-011100-
NORTHEAST ILLINOIS

CITY           SKY/WX    TMP DP  RH WIND       PRES   REMARKS
CHICAGO-OHARE  LGT SNOW  31  29  92 E10       30.04F VSB 3/4 WCI  22
CHICAGO-MIDWAY LGT SNOW  33  30  88 E10       30.04F FOG     WCI  25
AURORA         LGT SNOW  32  29  88 E13       30.02F VSB 3/4 WCI  22
LANSING*       LGT SNOW  32  32 100 E3        30.04F
JOLIET*        LGT SNOW  32  32  99 E3        30.04S VSB 1
WAUKEGAN       LGT SNOW  29  28  96 NE13      30.07F VSB 1   WCI  19
DUPAGE AIRPORT LGT SNOW  31  29  92 NE10      30.02F VSB 1   WCI  22
KANKAKEE*      LGT SNOW  32  32  99 SE7       30.04F VSB 1   WCI  26
WHEELING       LGT SNOW  31  29  92 E8        30.07F FOG     WCI  23
MORRIS*        LGT SNOW  32  32 100 E5        30.02F VSB 1   WCI  28
ROMEOVILLE*    LGT SNOW  32  32 100 E5        30.04S VSB 3/4 WCI  27
NORTHERLY ISL    N/A     31  30  96 E13         N/A  WCI  21
$$

LMZ740>746-011100-
SOUTHERN LAKE MICHIGAN

STATION/POSITION SKY/WX   TEMP    WIND        PRES    VSBY  WAVE
                          AIR SEA DIR/SP/G                  HT/PER
                          (F)     (DEG/KT/KT) (MB)    (MI)  (FT/S)
WAUKEGAN HARBOR            30      70/ 16/ 21   N/A
HARRISON CRIB              30      70/ 17/ 19   N/A
BURNHAM HARBOR             31      70/ 11/ 13   N/A
CALUMET HARBOR             31      60/ 12/ 14   N/A
MICHIGAN CITY              30      60/  7/  8   N/A
$$

ILZ025>027-034>036-040-047-049-050-058-095>099-011100-
WEST-CENTRAL ILLINOIS

CITY           SKY/WX    TMP DP  RH WIND       PRES   REMARKS
QUINCY         LGT SNOW  33  31  92 SE9       29.85F FOG     WCI  25
GALESBURG*     LGT SNOW  32  32 100 E8        29.89F WCI  25
MACOMB*        CLOUDY    32  32 100 E13       29.90F WCI  23
JACKSONVILLE*  LGT SNOW  34  33  94 SE10      29.88F WCI  26
PITTSFIELD*    LGT SNOW  33  32  96 SE8       29.87F WCI  27
$$

ILZ028>032-037-038-041>044-048-051>054-059>061-011100-
CENTRAL ILLINOIS

CITY           SKY/WX    TMP DP  RH WIND       PRES   REMARKS
PONTIAC        LGT SNOW  33  33 100 SE9       30.00F WCI  26
BLOOMINGTON    LGT SNOW  33  33 100 E10       29.97F FOG     WCI  25
DECATUR        LGT SNOW  35  29  78 SE10      29.97F WCI  27
PEORIA         SNOW      34  32  92 E10       29.94F VSB 1/2 WCI  26
LACON*         LGT SNOW  32  31  98 SE13      29.95F WCI  22
LINCOLN*       MIX PCPN  34  33  96 SE7       29.96F WCI  28
SPRINGFIELD    LGT SNOW  33  31  92 SE12      29.91F VSB 1   WCI  24
TAYLORVILLE    LGT SNOW  32  32 100 E6        29.95F WCI  26
$$

ILZ033-039-045-046-055>057-062-063-011100-
EAST-CENTRAL ILLINOIS

CITY           SKY/WX    TMP DP  RH WIND       PRES   REMARKS
CHAMPAIGN      CLOUDY    34  33  96 E16       29.97F WCI  24
DANVILLE*      LGT RAIN  32  31  96 NE8       29.98F WCI  25
RANTOUL*       LGT SNOW  34  33  98 E10       29.99F WCI  26
MATTOON        MIX PCPN  35  26  69 E8        29.95F WCI  29
PARIS*         CLOUDY    34  31  90 E5        30.00F WCI  29
$$

ILZ079-100>102-011100-
SOUTHWEST ILLINOIS

CITY           SKY/WX    TMP DP  RH WIND       PRES   REMARKS
ALTON          MIX PCPN  34  31  89 E7        29.90F WCI  28
BELLEVILLE     LGT RAIN  36  32  85 E6        29.86F WCI  31
CAHOKIA*       RAIN      36  33  89 NE5       29.89F FOG     WCI  32
SPARTA*        RAIN      37  29  71 SE7       29.88F WCI  32
$$

ILZ064>066-069>071-074>076-080>082-084>086-088>090-092>094-011100-
SOUTH-CENTRAL ILLINOIS

CITY           SKY/WX    TMP DP  RH WIND       PRES   REMARKS
CARBONDALE     LGT RAIN  44  22  41 S13       29.90F
CAIRO*         CLOUDY    48  26  41 S9        29.91F
EFFINGHAM*     CLOUDY    35  25  65 E9        29.96F WCI  28
MARION         CLOUDY    45  21  39 S9        29.92F
MT. VERNON     CLOUDY    37  25  60 E8        29.92F WCI  31
CENTRALIA*     CLOUDY    38  25  58 SE7       29.90F WCI  33
SALEM*         CLOUDY    40  26  57 SE8       29.93F
METROPOLIS*    CLOUDY    47  22  38 S8        29.93F
$$

ILZ067-068-072-073-078-083-087-091-011100-
SOUTHEAST ILLINOIS

CITY           SKY/WX    TMP DP  RH WIND       PRES   REMARKS
LAWRENCEVILLE  CLOUDY    36  26  67 E9        29.99F WCI  29
FLORA*         CLOUDY    36  27  72 SE9       29.94F WCI  29
FAIRFIELD*     CLOUDY    38  26  60 E6        29.94F WCI  34
HARRISBURG*    CLOUDY    39  27  61 SE7       29.95F WCI  34
ROBINSON*      CLOUDY    34  28  79 E7        30.01F WCI  28
CARMI*         CLOUDY    39  30  68 SE8       29.95F WCI  34
$$

ABBREVIATIONS USED IN REMARKS
   TC - TEMPERATURE IN CELSIUS
  WCI - WIND CHILL INDEX
   HX - HEAT INDEX
  VSB - VISIBILITY
$$



USA.gov is the U.S. government's official web portal to all federal, state and local government web resources and services.